Wind_Speed
21 20 21 21 21 19 18 16 15 13 12 11 11 11 15 19 17 13 12 9 10 13 14 12 9 5 2 1 2 4 6 7 13 14 5 3 4 3 3 7 4 6 2 4 1 6 5
21 21 22 22 22 21 19 16 14 12 11 10 9 11 16 18 17 16 13 11 8 4 13 11 11 5 0 1 1 7 8 5 8 8 5 5 3 4 3 4 4 4 6 3 7 5 5
20 22 22 23 22 22 21 18 14 11 8 8 9 12 16 16 18 19 18 13 10 8 12 11 8 7 2 3 2 10 9 10 6 6 3 3 2 1 3 7 4 5 6 5 9 7 3
20 21 22 22 22 23 22 20 17 11 8 7 10 12 14 16 19 19 13 10 9 14 17 16 11 9 4 10 10 11 7 6 13 5 1 6 9 1 2 6 6 5 5 5 5 7 4
20 20 21 23 24 24 24 22 18 13 8 7 8 10 12 14 21 18 8 11 9 10 9 7 12 5 4 6 4 6 10 6 7 3 4 5 0 3 3 5 5 8 4 4 2 4 3
20 21 21 23 24 25 25 23 18 12 7 7 7 8 10 13 21 21 4 3 8 7 8 7 8 4 8 5 5 3 2 7 3 6 3 6 5 3 5 5 5 5 6 3 3 4 4
19 21 22 23 24 25 27 25 19 10 6 7 7 7 9 12 17 23 15 3 8 6 12 6 3 4 7 13 2 7 3 7 4 8 3 5 7 3 3 3 4 7 6 5 1 3 3
20 21 23 24 25 26 27 26 22 11 8 7 7 8 9 10 15 18 22 8 2 2 2 2 1 4 3 6 9 14 12 4 3 4 2 7 4 5 3 3 7 6 6 3 1 4 1
20 21 23 24 26 28 28 27 23 13 9 8 8 9 9 10 12 12 19 6 2 1 3 6 3 4 4 9 5 6 4 1 6 8 7 6 3 3 4 7 7 5 5 3 2 3 3
20 21 23 26 27 28 29 29 26 15 9 9 11 11 10 9 3 6 4 6 3 1 5 11 7 1 3 7 6 1 4 2 8 5 3 5 5 5 6 7 3 4 2 3 4 4 2
18 20 23 26 27 27 28 28 28 21 10 9 11 13 9 4 0 3 5 7 1 2 5 11 9 8 6 6 2 7 8 8 4 4 4 2 5 8 9 4 2 3 3 4 3 5 3
16 18 23 25 26 27 27 29 29 29 13 6 7 13 10 3 3 2 5 3 0 6 2 8 5 7 5 7 7 7 7 8 4 7 8 3 1 5 2 3 4 5 5 6 4 3 3
15 17 22 24 25 27 27 29 31 32 20 6 7 10 10 5 2 5 3 3 5 6 3 8 4 6 2 7 6 7 5 7 4 5 5 6 4 4 4 4 4 5 5 3 4 4 5
13 15 20 23 25 26 28 30 32 33 19 9 6 7 5 7 6 5 1 5 9 4 3 4 3 4 5 6 5 8 3 5 7 5 4 4 6 6 7 3 2 3 3 5 5 2 4
13 16 19 22 25 26 28 30 33 34 25 8 6 3 4 9 8 5 5 7 4 3 4 6 2 6 6 5 3 5 5 3 2 4 3 4 2 2 3 2 2 1 3 3 7 2 3
13 16 19 21 24 26 28 29 33 34 27 9 3 2 5 12 6 4 5 5 3 4 1 1 3 3 3 6 5 5 6 3 4 3 1 3 4 1 2 0 4 2 6 4 3 1 3
13 16 18 20 23 26 28 29 33 35 27 8 2 3 7 7 4 6 4 2 1 2 1 2 3 3 2 4 2 2 1 2 3 5 3 2 3 3 2 2 5 2 1 5 4 3 4
13 15 17 20 22 24 26 28 31 34 28 7 3 3 10 5 4 2 3 2 1 2 1 1 1 1 3 2 3 3 2 1 5 2 3 1 3 2 1 1 1 1 3 4 4 4 1
13 14 16 19 21 24 25 27 28 33 26 7 2 2 6 4 4 2 1 2 2 2 3 4 2 2 1 1 3 2 3 2 3 3 2 1 2 3 5 3 4 2 3 3 4 2 6
12 14 15 16 20 23 24 25 26 28 23 6 2 3 4 4 1 4 2 1 2 1 2 2 1 2 2 2 2 2 1 0 1 2 6 4 3 3 5 2 2 3 3 4 4 2 4
12 12 14 14 18 20 22 25 26 27 20 5 4 1 1 2 4 3 3 1 2 2 3 3 2 1 1 1 1 2 1 2 1 2 2 3 4 4 6 9 6 7 6 7 9 9 8
13 13 13 12 13 16 19 22 24 26 18 7 3 2 3 1 2 2 2 2 1 1 1 1 1 2 1 3 3 2 3 2 4 2 0 3 3 5 4 2 5 6 12 13 15 16 14
14 14 14 14 12 13 14 18 21 22 15 5 2 3 3 3 3 1 2 3 3 2 2 3 4 3 2 4 3 3 2 1 1 3 4 2 4 2 5 4 4 8 12 15 4 5 11
16 15 14 13 12 12 12 13 15 17 16 6 4 1 3 1 1 2 2 2 2 1 2 1 3 3 2 1 1 0 1 3 2 4 2 4 3 1 4 3 3 5 0 3 9 7 13
18 18 16 14 13 12 12 11 10 10 10 8 4 2 1 1 2 2 3 2 3 4 1 2 2 1 2 4 2 4 3 3 1 3 4 3 3 2 2 3 8 7 1 3 5 6 7
21 21 19 16 14 14 12 10 10 7 5 2 3 3 2 2 3 1 1 1 2 1 4 2 1 1 4 2 2 3 4 3 3 2 3 5 5 5 3 3 5 3 3 2 1 5 2
21 21 19 19 16 15 14 11 9 8 5 1 1 1 3 1 3 0 2 3 3 2 2 3 2 0 2 2 3 4 4 2 4 5 5 4 2 10 9 5 7 7 5 2 2 4 4
17 22 24 21 19 18 16 14 11 8 4 3 1 3 1 2 4 5 4 4 1 1 4 3 2 0 2 2 3 3 4 4 2 3 5 7 7 5 4 4 9 5 3 6 5 1 3
19 21 21 24 23 21 19 17 13 10 6 6 4 5 5 2 4 4 9 10 8 6 4 2 2 3 4 3 2 1 3 1 2 3 1 3 6 5 9 7 2 5 5 3 4 4 4
Wind_Direction
29 23 21 17 16 14 9 4 4 11 17 13 13 18 11 5 5 9 358 17 32 25 19 32 35 354 132 46 281 114 127 135 130 147 201 204 115 261 149 115 93 89 137 54 60 63 38
30 24 21 20 16 14 9 4 0 3 16 19 14 8 3 4 1 355 351 338 337 15 18 19 9 356 108 18 106 142 140 125 114 161 181 207 168 261 113 75 90 129 101 87 43 30 40
25 23 19 18 14 15 10 4 356 357 7 6 359 360 356 1 356 344 344 348 351 14 22 14 12 21 50 4 143 144 167 125 202 201 121 252 251 344 180 90 161 124 80 64 26 349 40
23 21 17 14 11 11 8 4 356 351 348 338 337 346 355 357 356 343 350 3 24 101 70 39 37 17 75 33 113 127 140 161 212 237 41 266 262 126 39 117 39 70 51 84 346 355 336
22 17 15 11 9 7 7 3 358 349 351 345 340 343 357 4 5 0 8 33 46 123 121 78 42 31 6 2 45 94 149 175 193 195 83 288 114 92 40 87 56 22 115 90 59 35 331
18 15 13 9 6 5 6 4 1 354 4 3 358 350 356 1 9 12 350 322 7 104 110 112 30 42 340 329 336 60 162 151 143 94 27 26 36 67 42 58 158 136 102 65 116 337 24
14 12 11 9 5 4 6 6 5 4 27 27 10 355 354 358 6 18 50 6 15 6 27 75 197 114 298 316 314 54 91 103 64 65 59 13 62 46 325 16 114 115 98 107 355 349 26
12 10 9 10 6 5 6 9 6 28 33 35 14 351 347 350 356 20 51 77 148 282 61 39 233 307 300 339 41 12 27 53 78 83 36 29 62 311 323 77 92 70 109 78 23 3 55
8 9 7 8 9 10 10 12 12 27 28 15 10 348 341 339 349 13 59 73 22 331 68 19 39 18 300 11 66 26 353 219 76 65 47 100 284 348 81 44 82 39 109 125 108 18 69
6 10 6 10 12 11 14 14 14 15 10 10 1 347 336 329 340 5 59 16 355 72 69 333 354 93 325 360 19 273 314 121 38 95 78 72 333 62 65 72 25 87 331 85 70 77 212
5 14 12 13 12 11 12 12 9 6 348 346 1 359 347 346 49 69 327 335 355 121 56 315 316 316 336 125 297 345 20 38 64 54 79 306 18 42 52 342 333 134 78 81 83 88 74
4 16 15 13 12 10 10 9 7 2 344 316 347 1 359 359 74 30 336 340 57 44 330 335 327 349 7 19 8 331 26 44 164 72 39 66 38 60 52 21 53 152 69 47 58 75 34
2 2 14 12 12 10 8 7 7 2 357 315 311 346 14 28 13 356 1 60 43 84 322 320 334 2 37 6 19 31 30 28 57 77 11 9 13 353 35 63 20 62 56 5 1 8 220
356 357 11 8 8 9 7 6 5 4 359 344 324 346 17 32 9 354 65 53 65 255 253 288 325 342 55 3 19 6 37 36 30 69 85 104 345 7 339 63 137 58 118 147 198 199 270
346 353 3 5 4 5 6 4 4 3 2 343 320 351 17 350 348 348 72 53 158 228 326 340 6 51 355 6 35 60 46 35 336 28 117 133 17 324 31 20 57 183 57 151 104 63 42
341 349 354 357 0 1 2 2 1 3 1 348 322 340 5 352 353 41 72 121 147 194 173 36 33 7 44 339 44 35 14 327 353 36 216 197 84 3 312 114 31 72 153 67 3 139 277
332 342 346 350 356 358 360 0 359 0 0 4 10 40 356 4 33 54 85 118 196 282 270 117 136 56 36 10 48 49 353 11 15 336 41 97 91 287 348 202 180 90 73 55 112 129 174
321 335 342 347 351 355 357 0 358 0 360 12 67 33 351 4 50 41 73 15 155 7 349 353 58 112 138 116 59 57 29 345 341 335 43 354 129 160 171 336 144 153 187 150 128 224 230
318 324 336 344 346 350 355 358 1 0 2 350 72 277 357 5 80 30 174 103 93 55 16 4 22 21 338 102 100 160 161 176 44 59 81 14 17 14 349 12 8 260 209 124 96 82 205
317 317 326 338 343 347 352 355 359 360 359 11 52 28 343 48 92 99 71 17 92 120 126 113 354 352 10 14 3 190 212 306 20 122 116 113 101 153 190 215 148 257 225 197 152 149 178
326 320 316 328 337 344 348 352 355 359 358 24 29 36 205 342 13 73 43 12 36 13 15 6 22 171 177 236 310 289 296 304 358 150 82 114 188 172 227 219 197 204 212 193 208 224 201
305 319 316 316 328 338 346 350 355 359 360 67 91 50 359 67 313 71 43 97 64 5 154 345 72 359 313 279 212 274 155 236 221 346 177 337 199 164 261 193 205 259 236 224 219 229 243
291 300 310 307 314 328 339 349 355 1 8 58 75 114 114 345 352 30 231 170 163 141 189 185 179 141 218 236 260 286 254 329 276 170 205 166 141 81 282 9 330 287 228 211 183 217 220
282 286 293 299 294 309 323 342 354 2 17 26 22 34 94 278 87 260 328 317 272 225 282 272 156 156 220 278 258 151 301 254 195 260 115 137 111 358 288 347 219 252 52 131 205 237 218
271 278 277 283 279 288 306 323 341 354 6 16 19 22 91 272 197 260 221 239 345 345 293 287 325 332 358 31 25 338 329 354 49 85 165 113 125 314 283 248 301 307 47 141 172 283 208
266 272 269 268 274 270 283 298 314 329 333 16 68 44 37 101 243 189 114 134 189 239 328 275 61 37 60 71 85 233 243 238 255 181 42 121 126 161 155 238 252 264 322 346 303 278 154
263 264 268 265 261 259 263 273 285 301 298 312 260 98 119 124 288 207 191 184 136 136 211 283 298 34 37 125 179 207 249 222 240 197 170 130 175 214 214 248 278 245 240 308 151 252 180
273 263 257 259 254 251 251 256 265 272 281 258 242 202 207 168 259 199 228 164 116 171 172 205 51 315 62 180 183 236 206 230 250 175 184 176 164 194 191 221 264 174 104 173 213 213 176
290 277 269 258 249 245 244 244 246 248 259 212 249 215 221 206 245 246 241 248 253 225 158 224 208 157 193 124 212 354 256 262 198 262 18 248 198 190 194 212 244 211 214 245 177 172 212
Height
835 832 829 826 822 819 816 812 809 807 804 801 799 796 795 792 789 786 783 780 779 778 776 774 774 772 773 774 774 772 775 777 778 781 783 786 786 790 786 786 788 796 799 800 799 799 802
837 834 831 827 823 820 816 812 809 806 804 802 799 797 795 792 789 787 784 781 779 779 777 776 775 773 774 776 773 773 777 779 779 783 784 785 786 787 787 788 789 795 799 801 802 803 805
840 836 832 828 824 821 817 813 808 806 804 802 800 798 795 792 789 786 783 780 779 781 779 776 774 773 774 777 774 775 778 781 781 784 784 785 785 786 785 790 794 796 802 802 808 808 806
842 838 833 830 825 821 817 813 808 805 803 802 800 798 796 792 789 785 782 780 780 782 780 777 775 773 776 776 776 777 778 781 782 784 784 785 784 785 785 789 797 802 810 816 810 811 806
843 840 835 830 826 821 817 813 809 805 803 802 800 798 796 793 789 784 783 781 779 779 779 778 779 777 780 778 778 780 781 782 784 785 784 785 784 789 789 799 810 816 823 817 812 815 811
845 841 836 831 826 822 818 813 809 804 802 801 800 799 797 794 789 785 783 781 782 781 782 781 782 785 781 785 781 781 780 783 784 784 789 789 793 797 803 805 824 813 824 820 818 818 814
847 842 838 833 828 823 818 813 809 805 803 801 800 799 797 795 792 788 782 782 786 787 784 791 793 794 789 783 784 785 784 783 784 792 798 800 817 825 812 810 805 812 816 822 822 820 818
847 843 839 835 830 825 820 815 810 806 804 802 801 799 797 796 793 791 787 793 801 801 797 792 790 788 784 782 783 785 784 788 790 799 799 814 821 815 810 807 810 813 819 824 822 822 821
848 844 840 836 831 826 821 817 812 808 806 804 801 799 798 796 795 792 793 799 799 799 800 794 794 790 790 786 792 799 795 793 794 804 811 821 819 811 811 817 814 830 824 823 821 824 832
850 845 842 837 833 828 823 818 814 810 808 805 803 800 797 796 798 796 797 799 798 799 822 813 799 799 795 790 794 795 791 793 801 811 815 824 817 813 817 823 824 822 826 823 827 837 847
851 847 843 839 834 830 825 820 815 811 808 805 803 800 797 795 795 798 800 798 797 799 848 813 806 796 794 798 799 795 792 793 809 817 814 826 823 823 826 829 826 826 826 829 835 844 854
852 848 845 841 836 831 826 821 816 810 806 804 802 801 797 797 796 797 796 796 798 825 846 829 812 811 802 802 803 799 799 797 807 813 821 827 823 828 828 828 827 829 829 839 850 853 877
852 849 846 842 838 833 828 822 816 810 805 803 802 800 798 797 798 796 796 797 824 850 833 826 822 816 813 815 809 811 816 821 821 830 831 830 831 831 831 828 828 831 839 880 865 887 864
853 850 847 843 839 834 829 823 818 812 806 804 802 801 800 799 799 797 797 810 844 842 833 824 820 817 819 819 818 820 818 827 826 830 845 853 859 840 837 837 835 838 841 874 858 870 878
853 851 848 844 840 835 830 825 819 812 807 804 803 801 801 800 799 798 804 841 846 839 831 828 819 823 826 820 817 823 831 833 830 831 830 837 841 839 837 836 838 839 857 854 888 900 897
853 851 848 845 841 836 831 825 819 813 807 804 803 801 801 799 798 799 817 835 834 832 828 828 827 828 826 829 826 828 832 831 829 828 830 832 841 841 838 837 841 837 850 859 878 859 865
852 850 848 845 842 837 832 827 820 814 807 803 803 805 801 799 798 806 841 839 831 828 828 826 827 829 830 830 828 832 834 832 832 831 830 832 842 846 842 841 843 848 852 860 864 872 871
852 850 847 845 842 838 833 828 823 815 809 804 804 813 803 800 815 835 837 828 826 828 827 826 826 825 825 828 832 832 833 834 835 830 832 837 846 861 837 842 842 842 840 848 858 859 879
851 850 847 845 842 839 835 830 825 819 812 808 812 814 804 803 832 836 827 826 826 826 828 828 828 827 827 827 828 828 830 831 832 833 834 834 845 868 843 846 845 843 845 849 860 865 866
850 849 847 845 842 840 836 832 826 821 816 813 815 821 816 816 831 830 828 828 825 826 825 826 829 829 828 829 829 829 830 832 832 830 830 832 851 846 860 839 846 845 845 851 847 874 858
848 847 847 845 843 840 837 834 829 823 818 815 822 832 833 837 830 832 831 829 829 828 829 830 828 828 829 829 830 831 833 833 832 830 834 836 839 856 850 846 843 838 838 847 854 837 836
848 847 846 844 842 841 839 836 832 827 820 818 828 832 836 837 835 828 832 830 828 828 830 831 831 831 834 833 832 829 831 835 831 839 837 844 839 847 840 840 849 846 838 836 829 823 827
846 845 844 844 842 841 839 837 835 831 827 825 828 829 832 840 839 834 831 826 825 825 828 827 828 830 831 832 832 832 834 836 836 838 844 845 849 854 841 839 835 828 810 812 816 823 813
843 842 842 842 841 840 839 837 836 835 833 832 833 831 830 834 840 837 832 830 828 827 829 828 830 829 829 828 829 830 832 833 836 838 844 851 853 856 858 845 849 797 798 799 807 805 806
838 838 838 839 839 839 839 838 835 835 835 835 834 833 836 835 836 831 831 831 832 833 832 832 831 833 832 832 835 834 836 829 836 843 840 848 853 848 856 860 829 794 802 804 803 793 794
833 834 834 835 836 837 837 837 836 835 835 833 832 835 837 839 834 831 830 830 834 837 838 831 831 831 833 840 839 833 829 825 829 837 844 844 844 842 857 859 835 804 802 800 799 807 795
826 828 829 831 832 833 834 835 834 834 834 834 834 834 832 840 838 834 832 831 834 836 838 836 832 833 834 842 841 845 840 832 827 833 844 847 849 836 835 841 824 804 799 798 805 797 793
822 822 823 824 826 828 830 832 832 833 832 835 834 833 835 834 829 830 832 831 834 835 833 831 833 835 843 842 843 840 844 834 830 831 838 836 838 833 828 828 821 795 799 804 797 794 794
816 816 816 817 820 822 825 827 829 830 831 832 834 834 833 834 830 826 824 826 828 827 830 832 830 830 831 839 845 847 841 845 838 831 833 831 821 826 820 805 794 794 792 790 793 793 792